When you browse on this site, cookies collect data to enhance your experience and personalize the content and advertising you see.
Visit our Privacy Policy to learn more. By continuing to use the site, you agree to this use of cookies and data.
  • In Germany
  • List of Countries
  • For 7 days
  • Water Temperature
  • Satellite Maps
  • Weather Map
  • Weather Widgets
  • user-avatar
    Login

    Hourly Weather Sidi Bu-l-Abbas

    Today, 23 May, Thursday

    Time Temperature Precipitation Wind Pressure Humidity
    00:00 +19°C° 0 mm 0 mps 721 mmHg 49%
    01:00 +18°C° 0 mm 0 mps 720 mmHg 50%
    02:00 +18°C° 0 mm 0 mps 720 mmHg 51%
    03:00 +17°C° 0 mm 0 mps 720 mmHg 53%
    04:00 +18°C° 0 mm 0 mps 720 mmHg 52%
    05:00 +18°C° 0 mm 0 mps 721 mmHg 52%
    06:00 +19°C° 0 mm 0 mps 721 mmHg 52%
    07:00 +23°C° 0 mm 1 mps 721 mmHg 44%
    08:00 +25°C° 0 mm 1 mps 721 mmHg 36%
    09:00 +27°C° 0 mm 2 mps 722 mmHg 28%
    10:00 +28°C° 0 mm 2 mps 721 mmHg 25%
    11:00 +29°C° 0 mm 2 mps 721 mmHg 22%
    12:00 +31°C° 0 mm 2 mps 721 mmHg 20%
    13:00 +31°C° 0 mm 3 mps 721 mmHg 19%
    14:00 +33°C° 0 mm 4 mps 720 mmHg 19%
    15:00 +33°C° 0 mm 5 mps 720 mmHg 18%
    16:00 +32°C° 0 mm 5 mps 720 mmHg 20%
    17:00 +30°C° 0 mm 4 mps 719 mmHg 21%
    18:00 +29°C° 0 mm 4 mps 719 mmHg 22%
    19:00 +28°C° 0 mm 3 mps 719 mmHg 25%
    20:00 +26°C° 0 mm 2 mps 719 mmHg 29%
    21:00 +24°C° 0 mm 1 mps 719 mmHg 33%
    22:00 +24°C° 0 mm 1 mps 719 mmHg 34%
    23:00 +23°C° 0 mm 1 mps 719 mmHg 36%

    Tomorrow, 24 May, Friday

    Time Temperature Precipitation Wind Pressure Humidity
    00:00 +22°C° 0 mm 1 mps 719 mmHg 37%
    01:00 +22°C° 0 mm 1 mps 719 mmHg 38%
    02:00 +21°C° 0 mm 1 mps 718 mmHg 39%
    03:00 +21°C° 0 mm 1 mps 718 mmHg 40%
    04:00 +21°C° 0 mm 1 mps 718 mmHg 41%
    05:00 +21°C° 0 mm 1 mps 718 mmHg 42%
    06:00 +22°C° 0 mm 1 mps 718 mmHg 44%
    07:00 +23°C° 0 mm 1 mps 718 mmHg 39%
    08:00 +25°C° 0 mm 1 mps 718 mmHg 34%
    09:00 +26°C° 0 mm 1 mps 718 mmHg 29%
    10:00 +28°C° 0 mm 3 mps 718 mmHg 27%
    11:00 +29°C° 0 mm 4 mps 718 mmHg 26%
    12:00 +30°C° 0 mm 5 mps 718 mmHg 24%
    13:00 +30°C° 0 mm 6 mps 717 mmHg 24%
    14:00 +30°C° 0 mm 6 mps 717 mmHg 23%
    15:00 +30°C° 0 mm 7 mps 717 mmHg 22%
    16:00 +29°C° 0 mm 6 mps 716 mmHg 23%
    17:00 +28°C° 0 mm 6 mps 716 mmHg 24%
    18:00 +27°C° 0 mm 5 mps 716 mmHg 25%
    19:00 +25°C° 0 mm 4 mps 716 mmHg 28%
    20:00 +24°C° 0 mm 3 mps 716 mmHg 31%
    21:00 +23°C° 0 mm 2 mps 717 mmHg 35%
    22:00 +21°C° 0 mm 2 mps 717 mmHg 37%
    23:00 +21°C° 0 mm 2 mps 717 mmHg 40%

    Day after tomorrow, 25 May, Saturday

    Time Temperature Precipitation Wind Pressure Humidity
    00:00 +20°C° 0 mm 2 mps 716 mmHg 43%
    01:00 +19°C° 0 mm 2 mps 716 mmHg 48%
    02:00 +19°C° 0 mm 1 mps 716 mmHg 52%
    03:00 +19°C° 0 mm 1 mps 716 mmHg 57%
    04:00 +19°C° 0 mm 1 mps 716 mmHg 62%
    05:00 +17°C° 0 mm 2 mps 716 mmHg 66%
    06:00 +17°C° 0 mm 2 mps 716 mmHg 71%
    07:00 +18°C° 0.1 mm 2 mps 717 mmHg 65%
    08:00 +19°C° 0.1 mm 3 mps 717 mmHg 60%
    09:00 +20°C° 0.1 mm 4 mps 718 mmHg 54%
    10:00 +21°C° 0 mm 5 mps 718 mmHg 50%
    11:00 +22°C° 0 mm 5 mps 718 mmHg 46%
    12:00 +23°C° 0 mm 6 mps 718 mmHg 41%
    13:00 +23°C° 0 mm 6 mps 718 mmHg 42%
    14:00 +23°C° 0 mm 7 mps 719 mmHg 42%
    15:00 +23°C° 0 mm 7 mps 719 mmHg 43%
    16:00 +22°C° 0 mm 6 mps 719 mmHg 44%
    17:00 +21°C° 0 mm 6 mps 719 mmHg 46%
    18:00 +21°C° 0 mm 5 mps 719 mmHg 47%
    19:00 +20°C° 0 mm 4 mps 719 mmHg 51%
    20:00 +19°C° 0 mm 3 mps 720 mmHg 54%
    21:00 +18°C° 0 mm 3 mps 720 mmHg 58%
    22:00 +18°C° 0 mm 2 mps 720 mmHg 61%
    23:00 +17°C° 0 mm 2 mps 720 mmHg 64%

    26 May, Sunday

    Time Temperature Precipitation Wind Pressure Humidity
    00:00 +18°C° 0 mm 1 mps 720 mmHg 67%
    01:00 +18°C° 0 mm 1 mps 719 mmHg 69%
    02:00 +16°C° 0 mm 1 mps 719 mmHg 71%
    03:00 +16°C° 0 mm 1 mps 719 mmHg 73%
    04:00 +16°C° 0 mm 1 mps 719 mmHg 74%
    05:00 +16°C° 0 mm 1 mps 719 mmHg 75%
    06:00 +16°C° 0 mm 1 mps 719 mmHg 75%
    07:00 +17°C° 0 mm 2 mps 720 mmHg 71%
    08:00 +18°C° 0 mm 2 mps 720 mmHg 67%
    09:00 +18°C° 0 mm 3 mps 721 mmHg 63%
    10:00 +19°C° 0 mm 3 mps 721 mmHg 59%
    11:00 +20°C° 0 mm 4 mps 721 mmHg 55%
    12:00 +21°C° 0 mm 4 mps 721 mmHg 51%
    13:00 +22°C° 0 mm 5 mps 721 mmHg 49%
    14:00 +23°C° 0 mm 5 mps 720 mmHg 47%
    15:00 +23°C° 0 mm 6 mps 720 mmHg 44%
    16:00 +23°C° 0 mm 5 mps 720 mmHg 47%
    17:00 +22°C° 0 mm 5 mps 720 mmHg 50%
    18:00 +21°C° 0 mm 5 mps 720 mmHg 53%
    19:00 +20°C° 0 mm 4 mps 720 mmHg 57%
    20:00 +19°C° 0 mm 3 mps 721 mmHg 62%
    21:00 +19°C° 0 mm 2 mps 721 mmHg 66%
    22:00 +19°C° 0 mm 1 mps 721 mmHg 68%
    23:00 +19°C° 0 mm 1 mps 720 mmHg 71%

    27 May, Monday

    Time Temperature Precipitation Wind Pressure Humidity
    00:00 +18°C° 0 mm 1 mps 720 mmHg 73%
    01:00 +18°C° 0 mm 1 mps 720 mmHg 73%
    02:00 +18°C° 0 mm 1 mps 719 mmHg 74%
    03:00 +16°C° 0 mm 1 mps 719 mmHg 75%
    04:00 +18°C° 0 mm 1 mps 719 mmHg 72%
    05:00 +18°C° 0 mm 1 mps 719 mmHg 69%
    06:00 +19°C° 0 mm 1 mps 719 mmHg 65%
    07:00 +20°C° 0 mm 2 mps 719 mmHg 55%
    08:00 +21°C° 0 mm 2 mps 719 mmHg 46%
    09:00 +24°C° 0 mm 3 mps 720 mmHg 36%
    10:00 +26°C° 0 mm 2 mps 719 mmHg 31%
    11:00 +27°C° 0 mm 2 mps 719 mmHg 27%
    12:00 +29°C° 0 mm 2 mps 719 mmHg 23%
    13:00 +29°C° 0 mm 2 mps 719 mmHg 22%
    14:00 +30°C° 0 mm 3 mps 718 mmHg 21%
    15:00 +31°C° 0 mm 3 mps 718 mmHg 20%
    16:00 +30°C° 0 mm 4 mps 717 mmHg 23%
    17:00 +29°C° 0 mm 5 mps 717 mmHg 26%
    18:00 +28°C° 0 mm 6 mps 717 mmHg 29%
    19:00 +27°C° 0 mm 5 mps 717 mmHg 33%
    20:00 +25°C° 0 mm 3 mps 717 mmHg 38%
    21:00 +24°C° 0 mm 1 mps 718 mmHg 42%
    22:00 +23°C° 0 mm 1 mps 717 mmHg 44%
    23:00 +23°C° 0 mm 1 mps 717 mmHg 46%

    28 May, Tuesday

    Time Temperature Precipitation Wind Pressure Humidity
    00:00 +20°C° 0 mm 0 mps 717 mmHg 48%
    01:00 +20°C° 0 mm 0 mps 717 mmHg 49%
    02:00 +19°C° 0 mm 0 mps 716 mmHg 51%
    03:00 +19°C° 0 mm 0 mps 716 mmHg 52%
    04:00 +19°C° 0 mm 0 mps 716 mmHg 52%
    05:00 +19°C° 0 mm 0 mps 717 mmHg 52%
    06:00 +20°C° 0 mm 0 mps 717 mmHg 52%
    07:00 +21°C° 0 mm 0 mps 717 mmHg 45%
    08:00 +25°C° 0 mm 1 mps 717 mmHg 38%
    09:00 +27°C° 0 mm 1 mps 717 mmHg 31%
    10:00 +28°C° 0 mm 1 mps 718 mmHg 28%
    11:00 +30°C° 0 mm 2 mps 718 mmHg 25%
    12:00 +31°C° 0 mm 2 mps 718 mmHg 22%
    13:00 +33°C° 0 mm 3 mps 717 mmHg 21%
    14:00 +33°C° 0 mm 4 mps 717 mmHg 20%
    15:00 +34°C° 0 mm 5 mps 717 mmHg 20%
    16:00 +33°C° 0 mm 5 mps 717 mmHg 22%
    17:00 +32°C° 0 mm 5 mps 717 mmHg 23%
    18:00 +30°C° 0 mm 5 mps 717 mmHg 25%
    19:00 +28°C° 0 mm 4 mps 717 mmHg 28%
    20:00 +27°C° 0 mm 3 mps 718 mmHg 31%
    21:00 +26°C° 0 mm 1 mps 718 mmHg 34%
    22:00 +25°C° 0 mm 1 mps 718 mmHg 37%
    23:00 +24°C° 0 mm 1 mps 718 mmHg 39%
    Show more